Погода Тяня

Поиск расширенной информации на нашем сайте:

Полезная информация:

Новости сайта



02.01.2020
Опубликован Долгосрочный прогноз погоды по городам России и ближнего зарубежья на январь 2020 года.
Карты: Прогноз на январь и февраль 2020 года, Сравнение прогнозируемой аномалии приземной температуры воздуха на январь 2020 года по разным моделям.




Погода Тяня - сегодня

Время (UTC), дата Ветер
(°,м/с) 
Видим.   Явления Облачность Т
(°С)
Тd
(°С)
f(%) Тe
(°С)
Pmin
(гПа)
dP
(гПа)
Po
(мм)
O2
(г/м3)
Тmin Tmax R s Состояние
почвы
09 23.11.20 340 (С) 20000 м  слаб. снег  10/0 средняя 
[As op]
-4.8 -6.8 86 -8  1012.2  2.5  740  304           
12 23.11.20 320 (СЗ) 50000 м  {снег}  3/0 средняя 
[Ac trans]
-7.2 -11.5 71 -9  1015.7  743  308    -1.5  0.7     
15 23.11.20 тихо ()   20000 м    3/0 средняя 
[Ac trans]
-18.2 -20.1 85 -18  1018.8  744  323           
18 23.11.20 160 (Ю) 20000 м    ясно 
-21.6 -24.1 80 -22  1021  1.7  745  328           
21 23.11.20 тихо ()   20000 м    3/0 средняя 
[As trans]
-18.7 -21.3 80 -19  1021.8  1.1  746  324           
00 24.11.20 180 (Ю) 50000 м    9/0 средняя 
[Ac As]
-23.2 -25.7 80 -24  1024  1.8  748  331  -23.2      21  равномерный
сухой снег
100% 
15 24.11.20 тихо ()   20000 м  слаб. снег  10/0 средняя 
[Ac As]
-12.5 -15.2 80 -13  1029.1  0.7  752  319           
18 24.11.20 320 (СЗ) 20000 м  слаб. снег  10/0 средняя 
[As op]
-10.2 -14.6 70 -12  1029.8  753  316           
21 24.11.20 320 (СЗ) 20000 м  слаб. снег  10/0 средняя 
[As op]
-10.2 -14.6 70 -12  1029.5  -0.3  752  316           
00 25.11.20 320 (СЗ) 50000 м  {снег}  10/0 средняя 
[As trans]
-9.8 -15.7 62 -14  1030.7  1.2  753  316  -15.2    0.2  16  равномерный
сухой снег
100% 
03 25.11.20 340 (С) 20000 м  слаб. снег  10/0 средняя, верхняя 
[As trans|Ci sp]
-11.8 -16.2 70 -16  1031.9  754  319           
06 25.11.20 340 (С) 20000 м  {снег}  10/0 верхняя 
[Cs]
-11 -17.2 60 -14  1032.6  0.8  755  318           
09 25.11.20 340 (С) 20000 м    10/0 средняя, верхняя 
[As trans|Ci sp]
-11.2 -16.5 65 -14  1033.5  0.9  755  319           
12 25.11.20 320 (СЗ) 50000 м    8/0 средняя 
[Ac As]
-11.2 -17.4 60 -14  1035  1.3  756  319    -9.8  0.0     
15 25.11.20 320 (СЗ) 20000 м    10/0 средняя 
[Ac As]
-12 -17.2 65 -16  1035.6  0.5  757  320           
18 25.11.20 270 (З) 20000 м  слаб. снег  10/0 средняя 
[As op]
-12.1 -14.8 80 -12  1036.2  0.6  757  321           
21 25.11.20 320 (СЗ) 20000 м  слаб. снег  10/0 средняя 
[As op]
-12.6 -16.1 75 -13  1036.8  0.6  758  321           
00 26.11.20 320 (СЗ) 20000 м  {снег}  10/0 средняя 
[As trans]
-10.4 -15.7 65 -12  1036.6  758  319  -12.6    0.2  15  равномерный
сухой снег
100% 
03 26.11.20 320 (СЗ) 20000 м    10/0 средняя 
[Ac As]
-9 -11 85 -11  1036.5  758  317           
06 26.11.20 320 (СЗ) 20000 м    10/0 средняя 
[Ac As]
-8.2 -15.1 58 -11  1036.4  758  316           
09 26.11.20 320 (СЗ) 20000 м  слаб. снег  10/0 средняя 
[As op]
-8.6 -13.4 68 -10  1036.7  0.3  758  317           
12 26.11.20 340 (С) 50000 м  {снег}  10/0 средняя 
[As op]
-8.4 -16 54 -10  1037.4  0.7  758  317    -6.5  0.0     
15 26.11.20 320 (СЗ) 20000 м    10/0 средняя 
[As op]
-9.3 -16.2 57 -9  1037  -0.5  758  318           
18 26.11.20 тихо ()   20000 м  слаб. снег  10/0 средняя 
[As trans]
-12.8 -17.1 70 -13  1037.8  0.4  758  322           
21 26.11.20 тихо ()   20000 м  слаб. снег  10/0 средняя 
[As trans]
-12.9 -14.9 85 -13  1038.1  0.3  759  322           
Время (UTC), дата Ветер
(°,м/с) 
Видим.   Явления Облачность Т
(°С)
Тd
(°С)
f(%) Тe
(°С)
Pmin
(гПа)
dP
(гПа)
Po
(мм)
O2
(г/м3)
Тmin Tmax R s Состояние
почвы

Для получения пояснительной информации подведите курсор к названию столбца.

ПОГОДА Тяня - архив

Всё, что Вы хотите узнать о погоде Тяня - удобно и подробно!

Выберите нужную дату (начиная с 1 января 2019* года) и нажмите кнопку "Найти".
Будут отображены архивные сводки погоды по пункту Тяня, начиная с указанной даты.


Отображать данные в формате CSV (для использования в таблицах Excel)


Внимание! Наш архив погоды предназначен исключительно для личного некоммерческого использования в познавательных целях. Если Вам необходимы официальные справки о состоянии погоды (для производственных, юридических, коммерческих и т.п. целей), обращайтесь в органы Росгидромета.

*Примечание: данная дата относится к архиву по метеостанциям СССР (Россия, СНГ, Балтия).
Архив по метеостанциям Зарубежной Европы и Азии (кроме Китая) хранится 10 дней, по другим регионам земного шара (Китай, Африка, Америка, Австралия, Океания) - 1 день.

Тяня - район местоположения метеостанции


Название, широта, долгота, высота метеостанции:
Тяня 59.1°ш. 119.8°д. 190 м над ур. моря [Российская Федерация]

Дополнительная информация

В oтличие oт бoльшинства пoгoдных сайтoв мы публикуем пoдрoбную метеoинфoрмацию в детальнoм прoфессиoнальнoм фoрмате.

Характеристики температуры и влажнoсти вoздуха измеряются на высoте 2 м в тени вдали oт зданий и деревьев.
Скoрoсть ветра измеряется на высoте 10 м (на урoвне рoста челoвека скoрoсть ветра ниже в 1.5-2 раза). Если метеoстанция нахoдится в гoрoде или в лесу, тo скoрoсть ветра занижена на 2-4 м/с пo сравнению с oткрытым местoм. Скoрoсть ветра над акватoриями крупных рек и oзёр, а также на вершинах хoлмoв на 2-5 м/с выше, чем в oбычных услoвиях.
Атмoсфернoе давление в разных тoчках местнoсти мoжет значительнo oтличаться oт давления на метеoстанции, в зависимoсти oт услoвий рельефа (при пoдъёме на 10 м давление пoнижается примернo на 1 мм рт.ст.).